This is the latest recevied weather packets stored in our database for station/object W6DSP. If no packets are shown the sender has not sent any weather packets the latest 10 day(s).
| Time | Temp. | Humidity | Pressure | Rain* | Wind** | Luminosity | Snow |
|---|---|---|---|---|---|---|---|
| 1788486784 | 23.33° C | 87% | 1014.6 hPa | 0 mm | - | - | - |
| 1788486053 | 23.89° C | 86% | 1014.5 hPa | 0 mm | - | - | - |
| 1788485339 | 23.89° C | 84% | 1014.6 hPa | 0 mm | - | - | - |
| 1788484648 | 24.44° C | 84% | 1014.6 hPa | 0 mm | - | - | - |
| 1788483179 | 25° C | 83% | 1014.8 hPa | 0 mm | - | - | - |
| 1788481018 | 25.56° C | 81% | 1014.4 hPa | 0 mm | - | - | - |
| 1788479541 | 26.67° C | 79% | 1014.2 hPa | 0 mm | - | - | - |
| 1788478782 | 27.22° C | 78% | 1014.4 hPa | 0 mm | - | - | - |
| 1788477321 | 27.78° C | 77% | 1014.2 hPa | 0 mm | - | - | - |
| 1788476621 | 27.78° C | 76% | 1013.3 hPa | 0 mm | - | - | - |
| 1788473036 | 30° C | 74% | 1013.2 hPa | 0 mm | - | - | - |
| 1788471522 | 30.56° C | 68% | 1012.8 hPa | 0 mm | - | - | - |
| 1788470787 | 33.89° C | 65% | 1012.5 hPa | 0 mm | - | - | - |
| 1788468623 | 34.44° C | 66% | 1012.4 hPa | 0 mm | - | - | - |
| 1788467872 | 34.44° C | 63% | 1012.4 hPa | 0 mm | - | - | - |
| 1788464910 | 34.44° C | 61% | 1012.4 hPa | 0 mm | - | - | - |
| 1788464181 | 34.44° C | 66% | 1012.5 hPa | 0 mm | - | - | - |
| 1788462749 | 33.89° C | 62% | 1013.3 hPa | 0 mm | - | - | - |
| 1788462054 | 33.89° C | 65% | 1013.6 hPa | 0 mm | - | - | - |
| 1788459901 | 33.89° C | 66% | 1014 hPa | 0 mm | - | - | - |
| 1788457745 | 33.33° C | 67% | 1014.1 hPa | 0 mm | - | - | - |
| 1788457026 | 33.33° C | 66% | 1014 hPa | 0 mm | - | - | - |
| 1788454192 | 32.78° C | 70% | 1014.2 hPa | 0 mm | - | - | - |
| 1788452005 | 31.67° C | 67% | 1014.9 hPa | 0 mm | - | - | - |
| 1788447688 | 30.56° C | 72% | 1014.8 hPa | 0 mm | - | - | - |
* Rain latest hour (hover to see other rain measurements)
** Current wind speed in m/s (hover to see current wind gust speed)